User: anonymous
Location: Unspecified
(0.0000°N, 0.0000°E)
Time: 11:57:41
(UTC+00:00)
Language:

Alouette 1 - Orbit

View from above orbital plane
View from above orbital plane
View from above satellite
View from above satellite

Ground track
Ground track

The orbit data is extracted from the following two-line orbital elements,

1 00424U 62049A   14262.16088847  .00000092  00000-0  95550-4 0  5151
2 00424 080.4697 177.7552 0023459 136.7654 330.1687 13.68957259594365
Epoch (UTC): 19 September 2014 03:51:40
Eccentricity: 0.0023459
inclination: 80.4697°
perigee height: 986 km
apogee height: 1020 km
right ascension of ascending node: 177.7552°
argument of perigee: 136.7654°
revolutions per day: 13.68957259
mean anomaly at epoch: 330.1687°
orbit number at epoch: 59436

The dashed part of the orbit path shows where the satellite is in the earth's shadow,  

DLR